Location: Limerick
(52.6650°N, 8.6230°W)
Time: 19:48:39
(UTC+01:00)

ISS - Pass Details

Date: 23 July 2017
Orbit: 400 x 408 km, 51.6° (Epoch: 21 July)

Event Time Altitude Azimuth Distance (km) Brightness Sun altitude
Rises 02:23:34 0° 270° (W) 2,313 -0.1 -16.7°
Reaches altitude 10° 02:25:39 10° 269° (W) 1,454 -1.1 -16.6°
Maximum altitude 02:28:54 74° 184° (S) 422 -4.0 -16.5°
Drops below altitude 10° 02:32:09 10° 99° (E) 1,456 -1.0 -16.4°
Sets 02:34:14 0° 98° (E) 2,316 0.1 -16.4°
